Flag for U.S.A. Weather past 2 weeks in Lakewood, Colorado, U.S.A.

19 °F

Light snow. Ice fog.

Feels Like: 11 °F
Forecast: 14 / 29 °F
Wind: 6 mph from East

Location: Centennial Airport

Current Time: Nov 27, 2015 at 5:46:20 PM

Latest Report: Nov 27, 2015 at 4:53 PM

Visibility: 5 mi

Pressure: 30.47 "Hg (24.55 "Hg at 1683m altitude)

Humidity: 85%

Dew point: 15 °F

Location of LakewoodLocation

Historic Weather in Lakewood — Graph


Lakewood temperature yesterday

Maximum temperature yesterday: 24 °F (at 12:53 AM)
Minimum temperature yesterday: 13 °F (at 11:53 PM)
Average temperature yesterday: 20 °F

Past Weeks' High & Low Weather Summary

High63 °F (Nov 14, 1:53 PM)100% (Nov 16, 3:53 PM)30.64 "Hg (Nov 16, 3:53 PM)
Low5 °F (Nov 27, 6:53 AM)11% (Nov 15, 1:53 PM)29.37 "Hg (Nov 16, 11:53 AM)
Average35 °F57%30.01 "Hg
* Reported Nov 12 3:53 PM — Nov 27 3:53 PM, Lakewood, Weather by CustomWeather, © 2015

Note: Actual official high and low records may vary slightly from our data, if they occured in-between our weather recording intervals... More about our weather records


Lakewood weather history for previous 24 hours

Time TempWeatherWind HumidityBarometerVisibility
3:53 PM
Fri, Nov 27
19 °FMostly cloudy.6 mph77%30.48 "Hg10 mi
2:53 PM19 °FScattered clouds.5 mph71%30.48 "Hg10 mi
1:53 PM19 °FPassing clouds.5 mph68%30.49 "Hg10 mi
12:53 PM19 °FBroken clouds.No wind68%30.51 "Hg10 mi
11:53 AM16 °FPassing clouds.No wind77%30.55 "Hg10 mi
10:53 AM13 °FPassing clouds.5 mph81%30.60 "Hg10 mi
9:53 AM10 °FPassing clouds.7 mph88%30.63 "Hg10 mi
8:53 AM8 °FPartly sunny.7 mph87%30.62 "Hg10 mi
7:53 AM6 °FBroken clouds.6 mph91%30.64 "Hg10 mi
6:53 AM5 °FLight snow. Partly cloudy.8 mph87%30.64 "Hg6 mi
5:53 AM7 °FLight snow. Passing clouds.6 mph87%30.62 "Hg7 mi
4:53 AM9 °FLight snow. Ice fog.No wind88%30.60 "Hg9 mi
3:53 AM8 °FLight snow. Ice fog.No wind87%30.60 "Hg6 mi
2:53 AM11 °FLight snow. Ice fog.3 mph88%30.59 "Hg5 mi
1:53 AM11 °FLight snow. Ice fog.3 mph92%30.58 "Hg6 mi
12:53 AM13 °FLight snow. Ice fog.5 mph88%30.56 "Hg2 mi
11:53 PM
Thu, Nov 26
13 °FLight snow. Ice fog.8 mph88%30.56 "Hg1 mi
10:53 PM15 °FSnow. Ice fog.7 mph87%30.55 "Hg1 mi
9:53 PM15 °FLight snow. Ice fog.8 mph95%30.53 "Hg3 mi
8:53 PM17 °FLight snow. Ice fog.5 mph88%30.50 "Hg3 mi
7:53 PM17 °FLight snow. Ice fog.6 mph88%30.48 "Hg2 mi
6:53 PM17 °FLight snow. Ice fog.6 mph92%30.47 "Hg2 mi
5:53 PM18 °FLight snow. Ice fog.8 mph88%30.43 "Hg2 mi
Weather by CustomWeather, © 2015

See weather overviewHow to use our weather pages